Time,TemperatureF,DewpointF,PressureIn,WindDirection,WindDirectionDegrees,WindSpeedMPH,WindSpeedGustMPH,Humidity,HourlyPrecipIn,Conditions,Clouds,dailyrainin,SoftwareType,DateUTC
2013-01-20 00:00:00,40.3,29.1,30.09,SSW,196,5.0,6.0,64,0.00,,---,0.00,VWS V14.01,2013-01-20 05:00:00,
2013-01-20 00:02:00,40.3,29.1,30.09,SSW,205,3.0,3.0,64,0.00,,---,0.00,VWS V14.01,2013-01-20 05:02:00,
2013-01-20 00:03:00,40.4,29.2,30.09,South,172,3.0,6.0,64,0.00,,---,0.00,VWS V14.01,2013-01-20 05:03:00,
2013-01-20 00:08:00,40.3,29.5,30.09,SW,216,3.0,6.0,65,0.00,,---,0.00,VWS V14.01,2013-01-20 05:08:00,
2013-01-20 00:13:00,39.9,29.5,30.09,SSW,193,1.0,9.0,66,0.00,,---,0.00,VWS V14.01,2013-01-20 05:13:00,
2013-01-20 00:18:00,39.9,29.1,30.09,SSW,192,0.0,9.0,65,0.00,,---,0.00,VWS V14.01,2013-01-20 05:18:00,
2013-01-20 00:23:00,39.7,29.3,30.09,WSW,240,2.0,6.0,66,0.00,,---,0.00,VWS V14.01,2013-01-20 05:23:00,
2013-01-20 00:28:00,39.6,29.6,30.09,SSW,207,3.0,6.0,67,0.00,,---,0.00,VWS V14.01,2013-01-20 05:28:00,
2013-01-20 00:33:00,39.4,29.4,30.09,SSW,202,2.0,6.0,67,0.00,,---,0.00,VWS V14.01,2013-01-20 05:33:00,
2013-01-20 00:38:00,39.4,29.4,30.09,SW,232,2.0,6.0,67,0.00,,---,0.00,VWS V14.01,2013-01-20 05:38:00,
2013-01-20 00:43:00,39.3,29.3,30.09,SSW,194,3.0,5.0,67,0.00,,---,0.00,VWS V14.01,2013-01-20 05:43:00,
2013-01-20 00:48:00,39.1,29.5,30.08,SW,217,2.0,6.0,68,0.00,,---,0.00,VWS V14.01,2013-01-20 05:48:00,
2013-01-20 00:53:00,38.9,29.2,30.08,SW,217,0.0,4.0,68,0.00,,---,0.00,VWS V14.01,2013-01-20 05:53:00,
2013-01-20 00:59:00,38.9,29.2,30.08,SSW,211,1.0,7.0,68,0.00,,---,0.00,VWS V14.01,2013-01-20 05:59:00,
2013-01-20 01:04:00,38.8,29.2,30.08,SSW,213,1.0,10.0,68,0.00,,---,0.00,VWS V14.01,2013-01-20 06:04:00,
2013-01-20 01:09:00,38.7,29.1,30.08,SSW,200,6.0,10.0,68,0.00,,---,0.00,VWS V14.01,2013-01-20 06:09:00,
2013-01-20 01:14:00,38.7,29.1,30.08,SW,219,3.0,4.0,68,0.00,,---,0.00,VWS V14.01,2013-01-20 06:14:00,
2013-01-20 01:19:00,38.5,28.9,30.08,SW,223,2.0,5.0,68,0.00,,---,0.00,VWS V14.01,2013-01-20 06:19:00,
2013-01-20 01:24:00,38.5,28.9,30.08,SW,221,3.0,7.0,68,0.00,,---,0.00,VWS V14.01,2013-01-20 06:24:00,
2013-01-20 01:29:00,38.4,29.1,30.07,SW,225,0.0,7.0,69,0.00,,---,0.00,VWS V14.01,2013-01-20 06:29:00,
2013-01-20 01:34:00,38.3,29.0,30.07,SW,222,4.0,6.0,69,0.00,,---,0.00,VWS V14.01,2013-01-20 06:34:00,
2013-01-20 01:39:00,38.2,28.9,30.07,WSW,246,4.0,6.0,69,0.00,,---,0.00,VWS V14.01,2013-01-20 06:39:00,
2013-01-20 01:44:00,38.3,29.0,30.06,SW,224,5.0,7.0,69,0.00,,---,0.00,VWS V14.01,2013-01-20 06:44:00,
2013-01-20 01:49:00,38.1,28.8,30.06,WSW,242,2.0,7.0,69,0.00,,---,0.00,VWS V14.01,2013-01-20 06:49:00,
2013-01-20 01:54:00,38.0,28.8,30.06,SW,221,1.0,5.0,69,0.00,,---,0.00,VWS V14.01,2013-01-20 06:54:00,
2013-01-20 01:59:00,38.0,28.8,30.07,SW,224,2.0,5.0,69,0.00,,---,0.00,VWS V14.01,2013-01-20 06:59:00,
2013-01-20 02:04:00,37.8,28.6,30.07,WSW,237,2.0,6.0,69,0.00,,---,0.00,VWS V14.01,2013-01-20 07:04:00,
2013-01-20 02:09:00,37.8,28.6,30.07,SW,230,1.0,6.0,69,0.00,,---,0.00,VWS V14.01,2013-01-20 07:09:00,
2013-01-20 02:14:00,37.7,28.5,30.06,SSW,213,1.0,3.0,69,0.00,,---,0.00,VWS V14.01,2013-01-20 07:14:00,
2013-01-20 02:19:00,37.4,28.2,30.06,WSW,238,0.0,4.0,69,0.00,,---,0.00,VWS V14.01,2013-01-20 07:19:00,
2013-01-20 02:24:00,37.2,28.3,30.06,WSW,238,0.0,3.0,70,0.00,,---,0.00,VWS V14.01,2013-01-20 07:24:00,
2013-01-20 02:29:00,37.2,28.3,30.06,SW,229,1.0,3.0,70,0.00,,---,0.00,VWS V14.01,2013-01-20 07:29:00,
2013-01-20 02:34:00,36.8,28.3,30.06,SW,229,0.0,2.0,71,0.00,,---,0.00,VWS V14.01,2013-01-20 07:34:00,
2013-01-20 02:39:00,36.4,28.2,30.06,SW,217,1.0,4.0,72,0.00,,---,0.00,VWS V14.01,2013-01-20 07:39:00,
2013-01-20 02:44:00,36.3,28.5,30.06,SSW,193,1.0,4.0,73,0.00,,---,0.00,VWS V14.01,2013-01-20 07:44:00,
2013-01-20 02:50:00,36.4,28.6,30.06,SSW,198,2.0,3.0,73,0.00,,---,0.00,VWS V14.01,2013-01-20 07:50:00,
2013-01-20 02:55:00,36.1,28.6,30.06,SSW,198,1.0,3.0,74,0.00,,---,0.00,VWS V14.01,2013-01-20 07:55:00,
2013-01-20 03:00:00,36.0,28.5,30.05,SSW,205,0.0,1.0,74,0.00,,---,0.00,VWS V14.01,2013-01-20 08:00:00,
2013-01-20 03:05:00,36.1,28.3,30.05,West,267,3.0,4.0,73,0.00,,---,0.00,VWS V14.01,2013-01-20 08:05:00,
2013-01-20 03:10:00,36.2,28.4,30.05,West,265,2.0,4.0,73,0.00,,---,0.00,VWS V14.01,2013-01-20 08:10:00,
2013-01-20 03:15:00,36.1,28.3,30.05,SW,234,0.0,4.0,73,0.00,,---,0.00,VWS V14.01,2013-01-20 08:15:00,
2013-01-20 03:20:00,35.9,28.1,30.05,SW,219,2.0,3.0,73,0.00,,---,0.00,VWS V14.01,2013-01-20 08:20:00,
2013-01-20 03:25:00,35.5,28.0,30.05,SW,220,0.0,3.0,74,0.00,,---,0.00,VWS V14.01,2013-01-20 08:25:00,
2013-01-20 03:30:00,35.4,28.3,30.06,SW,220,0.0,0.0,75,0.00,,---,0.00,VWS V14.01,2013-01-20 08:30:00,
2013-01-20 03:35:00,35.3,28.2,30.06,SW,220,0.0,1.0,75,0.00,,---,0.00,VWS V14.01,2013-01-20 08:35:00,
2013-01-20 03:40:00,35.2,28.1,30.06,SW,220,1.0,2.0,75,0.00,,---,0.00,VWS V14.01,2013-01-20 08:40:00,
2013-01-20 03:45:00,34.9,28.1,30.05,SW,220,0.0,2.0,76,0.00,,---,0.00,VWS V14.01,2013-01-20 08:45:00,
2013-01-20 03:50:00,34.2,28.1,30.05,SW,220,0.0,0.0,78,0.00,,---,0.00,VWS V14.01,2013-01-20 08:50:00,
2013-01-20 03:56:00,33.8,28.0,30.05,SW,220,0.0,2.0,79,0.00,,---,0.00,VWS V14.01,2013-01-20 08:56:00,
2013-01-20 04:01:00,33.7,27.6,30.04,SW,220,0.0,0.0,78,0.00,,---,0.00,VWS V14.01,2013-01-20 09:01:00,
2013-01-20 04:06:00,33.5,27.7,30.04,SW,220,0.0,0.0,79,0.00,,---,0.00,VWS V14.01,2013-01-20 09:06:00,
2013-01-20 04:11:00,33.5,27.7,30.04,SW,220,0.0,1.0,79,0.00,,---,0.00,VWS V14.01,2013-01-20 09:11:00,
2013-01-20 04:16:00,33.3,27.8,30.04,SW,220,0.0,1.0,80,0.00,,---,0.00,VWS V14.01,2013-01-20 09:16:00,
2013-01-20 04:21:00,33.1,27.9,30.04,SW,220,0.0,0.0,81,0.00,,---,0.00,VWS V14.01,2013-01-20 09:21:00,
2013-01-20 04:26:00,33.1,27.9,30.04,SW,220,0.0,1.0,81,0.00,,---,0.00,VWS V14.01,2013-01-20 09:26:00,
2013-01-20 04:31:00,32.9,28.0,30.04,SW,220,0.0,1.0,82,0.00,,---,0.00,VWS V14.01,2013-01-20 09:31:00,
2013-01-20 04:36:00,32.6,28.3,30.04,SW,220,0.0,2.0,84,0.00,,---,0.00,VWS V14.01,2013-01-20 09:36:00,
2013-01-20 04:41:00,32.4,28.4,30.04,SW,220,2.0,3.0,85,0.00,,---,0.00,VWS V14.01,2013-01-20 09:41:00,
2013-01-20 04:47:00,32.5,28.8,30.04,SW,220,0.0,3.0,86,0.00,,---,0.00,VWS V14.01,2013-01-20 09:47:00,
2013-01-20 04:52:00,32.9,28.3,30.04,SW,220,2.0,2.0,83,0.00,,---,0.00,VWS V14.01,2013-01-20 09:52:00,
2013-01-20 04:57:00,32.8,28.2,30.04,SW,220,2.0,3.0,83,0.00,,---,0.00,VWS V14.01,2013-01-20 09:57:00,
2013-01-20 05:02:00,33.0,28.1,30.04,SW,220,0.0,1.0,82,0.00,,---,0.00,VWS V14.01,2013-01-20 10:02:00,
2013-01-20 05:07:00,33.0,28.4,30.04,SW,220,0.0,1.0,83,0.00,,---,0.00,VWS V14.01,2013-01-20 10:07:00,
2013-01-20 05:12:00,32.8,28.2,30.04,SW,220,0.0,0.0,83,0.00,,---,0.00,VWS V14.01,2013-01-20 10:12:00,
2013-01-20 05:17:00,32.7,28.1,30.03,SW,220,0.0,0.0,83,0.00,,---,0.00,VWS V14.01,2013-01-20 10:17:00,
2013-01-20 05:22:00,32.4,28.1,30.03,SW,220,0.0,2.0,84,0.00,,---,0.00,VWS V14.01,2013-01-20 10:22:00,
2013-01-20 05:27:00,32.3,28.0,30.03,SW,220,0.0,3.0,84,0.00,,---,0.00,VWS V14.01,2013-01-20 10:27:00,
2013-01-20 05:32:00,32.0,27.7,30.03,SW,220,0.0,3.0,84,0.00,,---,0.00,VWS V14.01,2013-01-20 10:32:00,
2013-01-20 05:37:00,31.8,27.8,30.03,SW,220,0.0,3.0,85,0.00,,---,0.00,VWS V14.01,2013-01-20 10:37:00,
2013-01-20 05:42:00,31.6,28.2,30.03,SW,220,0.0,0.0,87,0.00,,---,0.00,VWS V14.01,2013-01-20 10:42:00,
2013-01-20 05:47:00,31.3,28.2,30.03,SW,220,0.0,2.0,88,0.00,,---,0.00,VWS V14.01,2013-01-20 10:47:00,
2013-01-20 05:52:00,31.1,28.2,30.03,SW,220,0.0,0.0,89,0.00,,---,0.00,VWS V14.01,2013-01-20 10:52:00,
2013-01-20 05:58:00,31.0,28.1,30.03,SW,220,0.0,0.0,89,0.00,,---,0.00,VWS V14.01,2013-01-20 10:58:00,
2013-01-20 06:03:00,30.7,27.9,30.02,SW,220,0.0,0.0,89,0.00,,---,0.00,VWS V14.01,2013-01-20 11:03:00,
2013-01-20 06:08:00,30.5,27.6,30.02,SW,220,0.0,0.0,89,0.00,,---,0.00,VWS V14.01,2013-01-20 11:08:00,
2013-01-20 06:13:00,30.2,27.6,30.02,SW,220,0.0,0.0,90,0.00,,---,0.00,VWS V14.01,2013-01-20 11:13:00,
2013-01-20 06:18:00,30.1,27.5,30.02,SW,220,0.0,0.0,90,0.00,,---,0.00,VWS V14.01,2013-01-20 11:18:00,
2013-01-20 06:23:00,30.0,27.4,30.02,SW,220,0.0,0.0,90,0.00,,---,0.00,VWS V14.01,2013-01-20 11:23:00,
2013-01-20 06:28:00,30.0,27.7,30.02,SW,220,0.0,0.0,91,0.00,,---,0.00,VWS V14.01,2013-01-20 11:28:00,
2013-01-20 06:33:00,30.1,27.8,30.02,SW,220,0.0,1.0,91,0.00,,---,0.00,VWS V14.01,2013-01-20 11:33:00,
2013-01-20 06:38:00,30.2,28.2,30.02,SW,220,0.0,1.0,92,0.00,,---,0.00,VWS V14.01,2013-01-20 11:38:00,
2013-01-20 06:43:00,30.2,28.2,30.02,SW,220,0.0,0.0,92,0.00,,---,0.00,VWS V14.01,2013-01-20 11:43:00,
2013-01-20 06:48:00,30.2,28.2,30.03,SW,220,1.0,2.0,92,0.00,,---,0.00,VWS V14.01,2013-01-20 11:48:00,
2013-01-20 06:53:00,30.2,28.2,30.03,SW,220,1.0,2.0,92,0.00,,---,0.00,VWS V14.01,2013-01-20 11:53:00,
2013-01-20 06:58:00,30.2,28.2,30.03,SW,220,0.0,3.0,92,0.00,,---,0.00,VWS V14.01,2013-01-20 11:58:00,
2013-01-20 07:03:00,30.1,28.1,30.03,SW,220,0.0,1.0,92,0.00,,---,0.00,VWS V14.01,2013-01-20 12:03:00,
2013-01-20 07:08:00,30.3,28.3,30.03,SW,220,1.0,2.0,92,0.00,,---,0.00,VWS V14.01,2013-01-20 12:08:00,
2013-01-20 07:13:00,30.6,28.3,30.03,SW,220,1.0,3.0,91,0.00,,---,0.00,VWS V14.01,2013-01-20 12:13:00,
2013-01-20 07:19:00,30.3,27.7,30.03,SW,220,0.0,3.0,90,0.00,,---,0.00,VWS V14.01,2013-01-20 12:19:00,
2013-01-20 07:24:00,29.9,27.3,30.03,SW,220,0.0,0.0,90,0.00,,---,0.00,VWS V14.01,2013-01-20 12:24:00,
2013-01-20 07:29:00,29.6,27.0,30.04,SW,220,0.0,0.0,90,0.00,,---,0.00,VWS V14.01,2013-01-20 12:29:00,
2013-01-20 07:34:00,29.3,27.0,30.04,SW,220,0.0,0.0,91,0.00,,---,0.00,VWS V14.01,2013-01-20 12:34:00,
2013-01-20 07:39:00,29.2,26.9,30.04,SW,220,0.0,0.0,91,0.00,,---,0.00,VWS V14.01,2013-01-20 12:39:00,
2013-01-20 07:44:00,29.2,26.9,30.04,SW,220,0.0,0.0,91,0.00,,---,0.00,VWS V14.01,2013-01-20 12:44:00,
2013-01-20 07:49:00,29.2,26.9,30.04,SW,220,0.0,0.0,91,0.00,,---,0.00,VWS V14.01,2013-01-20 12:49:00,
2013-01-20 07:54:00,29.2,26.9,30.04,SW,220,0.0,0.0,91,0.00,,---,0.00,VWS V14.01,2013-01-20 12:54:00,
2013-01-20 07:59:00,29.4,27.4,30.04,SW,220,0.0,0.0,92,0.00,,---,0.00,VWS V14.01,2013-01-20 12:59:00,
2013-01-20 08:04:00,29.7,27.4,30.04,SW,220,0.0,0.0,91,0.00,,---,0.00,VWS V14.01,2013-01-20 13:04:00,
2013-01-20 08:09:00,30.2,27.6,30.04,SW,220,0.0,0.0,90,0.00,,---,0.00,VWS V14.01,2013-01-20 13:09:00,
2013-01-20 08:14:00,30.3,27.7,30.04,SW,220,0.0,0.0,90,0.00,,---,0.00,VWS V14.01,2013-01-20 13:14:00,
2013-01-20 08:19:00,30.5,28.2,30.04,SW,220,0.0,2.0,91,0.00,,---,0.00,VWS V14.01,2013-01-20 13:19:00,
2013-01-20 08:24:00,31.2,28.9,30.04,SW,220,0.0,4.0,91,0.00,,---,0.00,VWS V14.01,2013-01-20 13:24:00,
2013-01-20 08:29:00,32.3,29.4,30.04,SW,220,0.0,4.0,89,0.00,,---,0.00,VWS V14.01,2013-01-20 13:29:00,
2013-01-20 08:34:00,32.5,29.4,30.04,SW,220,0.0,0.0,88,0.00,,---,0.00,VWS V14.01,2013-01-20 13:34:00,
2013-01-20 08:40:00,32.7,29.5,30.04,SW,220,0.0,0.0,88,0.00,,---,0.00,VWS V14.01,2013-01-20 13:40:00,
2013-01-20 08:45:00,33.2,30.3,30.04,SW,220,0.0,0.0,89,0.00,,---,0.00,VWS V14.01,2013-01-20 13:45:00,
2013-01-20 08:50:00,34.3,30.8,30.04,SW,220,0.0,0.0,87,0.00,,---,0.00,VWS V14.01,2013-01-20 13:50:00,
2013-01-20 08:55:00,35.6,31.5,30.04,SW,220,0.0,0.0,85,0.00,,---,0.00,VWS V14.01,2013-01-20 13:55:00,
2013-01-20 09:00:00,37.4,31.5,30.05,SSW,203,2.0,2.0,79,0.00,,---,0.00,VWS V14.01,2013-01-20 14:00:00,
2013-01-20 09:05:00,39.6,32.7,30.05,SW,230,5.0,5.0,76,0.00,,---,0.00,VWS V14.01,2013-01-20 14:05:00,
2013-01-20 09:10:00,41.3,32.6,30.05,SW,215,2.0,2.0,71,0.00,,---,0.00,VWS V14.01,2013-01-20 14:10:00,
2013-01-20 09:15:00,42.8,33.7,30.05,SW,229,3.0,6.0,70,0.00,,---,0.00,VWS V14.01,2013-01-20 14:15:00,
2013-01-20 09:20:00,43.7,32.3,30.05,SW,223,6.0,7.0,64,0.00,,---,0.00,VWS V14.01,2013-01-20 14:20:00,
2013-01-20 09:25:00,44.4,31.8,30.05,SSW,199,2.0,10.0,61,0.00,,---,0.00,VWS V14.01,2013-01-20 14:25:00,
2013-01-20 09:30:00,45.0,33.6,30.05,SW,230,7.0,10.0,64,0.00,,---,0.00,VWS V14.01,2013-01-20 14:30:00,
2013-01-20 09:35:00,45.6,32.9,30.05,SW,217,0.0,10.0,61,0.00,,---,0.00,VWS V14.01,2013-01-20 14:35:00,
2013-01-20 09:40:00,46.4,33.7,30.05,WSW,250,3.0,4.0,61,0.00,,---,0.00,VWS V14.01,2013-01-20 14:40:00,
2013-01-20 09:45:00,47.3,32.8,30.05,West,261,4.0,7.0,57,0.00,,---,0.00,VWS V14.01,2013-01-20 14:45:00,
2013-01-20 09:50:00,47.7,32.8,30.05,SSW,207,3.0,3.0,56,0.00,,---,0.00,VWS V14.01,2013-01-20 14:50:00,
2013-01-20 09:55:00,47.6,32.2,30.05,West,269,7.0,10.0,55,0.00,,---,0.00,VWS V14.01,2013-01-20 14:55:00,
2013-01-20 10:00:00,47.9,32.5,30.05,SW,227,3.0,3.0,55,0.00,,---,0.00,VWS V14.01,2013-01-20 15:00:00,
2013-01-20 10:05:00,48.4,33.0,30.05,SW,229,3.0,10.0,55,0.00,,---,0.00,VWS V14.01,2013-01-20 15:05:00,
2013-01-20 10:11:00,48.8,33.4,30.05,West,275,6.0,7.0,55,0.00,,---,0.00,VWS V14.01,2013-01-20 15:11:00,
2013-01-20 10:16:00,49.3,34.3,30.05,SSW,192,6.0,8.0,56,0.00,,---,0.00,VWS V14.01,2013-01-20 15:16:00,
2013-01-20 10:21:00,50.3,34.8,30.05,SW,215,3.0,7.0,55,0.00,,---,0.00,VWS V14.01,2013-01-20 15:21:00,
2013-01-20 10:26:00,50.0,34.5,30.05,SSW,212,4.0,10.0,55,0.00,,---,0.00,VWS V14.01,2013-01-20 15:26:00,
2013-01-20 10:31:00,50.6,34.6,30.05,WSW,240,1.0,7.0,54,0.00,,---,0.00,VWS V14.01,2013-01-20 15:31:00,
2013-01-20 10:36:00,51.4,34.9,30.05,WSW,240,2.0,12.0,53,0.00,,---,0.00,VWS V14.01,2013-01-20 15:36:00,
2013-01-20 10:41:00,51.6,35.0,30.05,West,271,5.0,12.0,53,0.00,,---,0.00,VWS V14.01,2013-01-20 15:41:00,
2013-01-20 10:46:00,52.7,37.0,30.05,WNW,292,3.0,12.0,55,0.00,,---,0.00,VWS V14.01,2013-01-20 15:46:00,
2013-01-20 10:51:00,53.0,35.9,30.05,West,269,7.0,14.0,52,0.00,,---,0.00,VWS V14.01,2013-01-20 15:51:00,
2013-01-20 10:56:00,52.8,35.2,30.05,WSW,246,9.0,16.0,51,0.00,,---,0.00,VWS V14.01,2013-01-20 15:56:00,
2013-01-20 11:01:00,53.1,35.0,30.04,South,189,10.0,14.0,50,0.00,,---,0.00,VWS V14.01,2013-01-20 16:01:00,
2013-01-20 11:07:00,53.2,35.1,30.04,WSW,245,8.0,16.0,50,0.00,,---,0.00,VWS V14.01,2013-01-20 16:07:00,
2013-01-20 11:12:00,54.0,37.3,30.04,WSW,254,13.0,13.0,53,0.00,,---,0.00,VWS V14.01,2013-01-20 16:12:00,
2013-01-20 11:17:00,54.1,36.4,30.04,WSW,244,4.0,17.0,51,0.00,,---,0.00,VWS V14.01,2013-01-20 16:17:00,
2013-01-20 11:22:00,54.6,35.3,30.04,West,268,3.0,11.0,48,0.00,,---,0.00,VWS V14.01,2013-01-20 16:22:00,
2013-01-20 11:27:00,54.5,36.3,30.04,West,263,6.0,15.0,50,0.00,,---,0.00,VWS V14.01,2013-01-20 16:27:00,
2013-01-20 11:32:00,54.9,36.1,30.03,SSW,211,9.0,14.0,49,0.00,,---,0.00,VWS V14.01,2013-01-20 16:32:00,
2013-01-20 11:37:00,55.5,36.7,30.03,WNW,290,4.0,14.0,49,0.00,,---,0.00,VWS V14.01,2013-01-20 16:37:00,
2013-01-20 11:42:00,56.2,35.7,30.03,West,262,6.0,11.0,46,0.00,,---,0.00,VWS V14.01,2013-01-20 16:42:00,
2013-01-20 11:47:00,56.8,36.8,30.02,WSW,252,5.0,12.0,47,0.00,,---,0.00,VWS V14.01,2013-01-20 16:47:00,
2013-01-20 11:53:00,57.0,36.4,30.02,WNW,294,6.0,13.0,46,0.00,,---,0.00,VWS V14.01,2013-01-20 16:53:00,
2013-01-20 11:58:00,56.8,35.1,30.02,NW,323,9.0,14.0,44,0.00,,---,0.00,VWS V14.01,2013-01-20 16:58:00,
2013-01-20 12:03:00,57.0,37.0,30.02,West,276,8.0,12.0,47,0.00,,---,0.00,VWS V14.01,2013-01-20 17:03:00,
2013-01-20 12:08:00,57.4,37.9,30.02,WNW,298,6.0,12.0,48,0.00,,---,0.00,VWS V14.01,2013-01-20 17:08:00,
2013-01-20 12:13:00,57.2,34.9,30.02,WSW,248,1.0,16.0,43,0.00,,---,0.00,VWS V14.01,2013-01-20 17:13:00,
2013-01-20 12:18:00,57.9,37.3,30.00,WNW,297,3.0,16.0,46,0.00,,---,0.00,VWS V14.01,2013-01-20 17:18:00,
2013-01-20 12:23:00,58.0,35.7,30.00,WSW,250,4.0,14.0,43,0.00,,---,0.00,VWS V14.01,2013-01-20 17:23:00,
2013-01-20 12:28:00,58.2,35.8,30.00,West,274,6.0,14.0,43,0.00,,---,0.00,VWS V14.01,2013-01-20 17:28:00,
2013-01-20 12:33:00,58.4,34.8,29.99,West,269,10.0,16.0,41,0.00,,---,0.00,VWS V14.01,2013-01-20 17:33:00,
2013-01-20 12:38:00,58.8,35.2,29.99,West,273,7.0,16.0,41,0.00,,---,0.00,VWS V14.01,2013-01-20 17:38:00,
2013-01-20 12:44:00,58.8,35.8,29.99,West,263,5.0,13.0,42,0.00,,---,0.00,VWS V14.01,2013-01-20 17:44:00,
2013-01-20 12:49:00,58.8,34.5,29.99,West,264,3.0,13.0,40,0.00,,---,0.00,VWS V14.01,2013-01-20 17:49:00,
2013-01-20 12:54:00,59.1,35.4,29.99,West,265,10.0,14.0,41,0.00,,---,0.00,VWS V14.01,2013-01-20 17:54:00,
2013-01-20 12:59:00,59.3,34.4,29.99,SSW,209,9.0,17.0,39,0.00,,---,0.00,VWS V14.01,2013-01-20 17:59:00,
2013-01-20 13:04:00,59.3,35.0,29.99,WNW,296,6.0,16.0,40,0.00,,---,0.00,VWS V14.01,2013-01-20 18:04:00,
2013-01-20 13:09:00,59.3,35.6,29.99,SSW,207,3.0,16.0,41,0.00,,---,0.00,VWS V14.01,2013-01-20 18:09:00,
2013-01-20 13:14:00,59.1,33.5,29.98,West,281,9.0,16.0,38,0.00,,---,0.00,VWS V14.01,2013-01-20 18:14:00,
2013-01-20 13:19:00,59.1,36.0,29.98,SW,224,6.0,16.0,42,0.00,,---,0.00,VWS V14.01,2013-01-20 18:19:00,
2013-01-20 13:25:00,59.4,33.8,29.98,West,261,9.0,17.0,38,0.00,,---,0.00,VWS V14.01,2013-01-20 18:25:00,
2013-01-20 13:30:00,59.2,35.5,29.97,WSW,244,7.0,12.0,41,0.00,,---,0.00,VWS V14.01,2013-01-20 18:30:00,
2013-01-20 13:35:00,59.2,34.3,29.97,SW,235,5.0,13.0,39,0.00,,---,0.00,VWS V14.01,2013-01-20 18:35:00,
2013-01-20 13:40:00,59.0,34.7,29.97,WSW,247,4.0,5.0,40,0.00,,---,0.00,VWS V14.01,2013-01-20 18:40:00,
2013-01-20 13:45:00,59.5,33.9,29.97,West,280,6.0,17.0,38,0.00,,---,0.00,VWS V14.01,2013-01-20 18:45:00,
2013-01-20 13:50:00,59.5,35.8,29.97,SW,225,4.0,5.0,41,0.00,,---,0.00,VWS V14.01,2013-01-20 18:50:00,
2013-01-20 13:55:00,59.9,34.2,29.97,West,278,9.0,16.0,38,0.00,,---,0.00,VWS V14.01,2013-01-20 18:55:00,
2013-01-20 14:00:00,59.7,34.7,29.97,SW,232,7.0,9.0,39,0.00,,---,0.00,VWS V14.01,2013-01-20 19:00:00,
2013-01-20 14:05:00,59.9,34.9,29.97,SW,227,9.0,16.0,39,0.00,,---,0.00,VWS V14.01,2013-01-20 19:05:00,
2013-01-20 14:10:00,60.3,34.6,29.97,SW,221,11.0,11.0,38,0.00,,---,0.00,VWS V14.01,2013-01-20 19:10:00,
2013-01-20 14:15:00,59.6,34.0,29.97,West,279,6.0,14.0,38,0.00,,---,0.00,VWS V14.01,2013-01-20 19:15:00,
2013-01-20 14:21:00,60.0,34.3,29.97,West,264,6.0,10.0,38,0.00,,---,0.00,VWS V14.01,2013-01-20 19:21:00,
2013-01-20 14:26:00,60.5,34.8,29.97,WSW,242,3.0,13.0,38,0.00,,---,0.00,VWS V14.01,2013-01-20 19:26:00,
2013-01-20 14:31:00,60.5,34.1,29.96,WNW,282,2.0,7.0,37,0.00,,---,0.00,VWS V14.01,2013-01-20 19:31:00,
2013-01-20 14:36:00,60.5,34.8,29.96,SW,223,3.0,14.0,38,0.00,,---,0.00,VWS V14.01,2013-01-20 19:36:00,
2013-01-20 14:41:00,60.0,35.6,29.96,SW,219,3.0,11.0,40,0.00,,---,0.00,VWS V14.01,2013-01-20 19:41:00,
2013-01-20 14:46:00,60.4,36.0,29.95,WSW,255,3.0,11.0,40,0.00,,---,0.00,VWS V14.01,2013-01-20 19:46:00,
2013-01-20 14:51:00,60.8,35.7,29.95,WSW,243,11.0,11.0,39,0.00,,---,0.00,VWS V14.01,2013-01-20 19:51:00,
2013-01-20 14:56:00,61.1,36.0,29.95,SSW,196,7.0,11.0,39,0.00,,---,0.00,VWS V14.01,2013-01-20 19:56:00,
2013-01-20 15:01:00,60.6,34.2,29.95,WNW,282,7.0,7.0,37,0.00,,---,0.00,VWS V14.01,2013-01-20 20:01:00,
2013-01-20 15:06:00,60.5,34.8,29.95,WNW,290,2.0,9.0,38,0.00,,---,0.00,VWS V14.01,2013-01-20 20:06:00,
2013-01-20 15:11:00,60.6,36.2,29.95,WNW,284,6.0,10.0,40,0.00,,---,0.00,VWS V14.01,2013-01-20 20:11:00,
2013-01-20 15:16:00,60.6,34.9,29.95,SW,217,5.0,14.0,38,0.00,,---,0.00,VWS V14.01,2013-01-20 20:16:00,
2013-01-20 15:22:00,60.7,35.0,29.95,West,267,6.0,7.0,38,0.00,,---,0.00,VWS V14.01,2013-01-20 20:22:00,
2013-01-20 15:27:00,61.1,35.3,29.95,West,264,6.0,10.0,38,0.00,,---,0.00,VWS V14.01,2013-01-20 20:27:00,
2013-01-20 15:32:00,60.6,34.2,29.95,SW,215,10.0,12.0,37,0.00,,---,0.00,VWS V14.01,2013-01-20 20:32:00,
2013-01-20 15:37:00,60.7,34.3,29.95,West,263,3.0,12.0,37,0.00,,---,0.00,VWS V14.01,2013-01-20 20:37:00,
2013-01-20 15:42:00,60.3,33.9,29.95,SW,227,3.0,10.0,37,0.00,,---,0.00,VWS V14.01,2013-01-20 20:42:00,
2013-01-20 15:47:00,60.6,35.5,29.95,SW,236,9.0,12.0,39,0.00,,---,0.00,VWS V14.01,2013-01-20 20:47:00,
2013-01-20 15:52:00,60.6,34.2,29.95,WNW,288,2.0,11.0,37,0.00,,---,0.00,VWS V14.01,2013-01-20 20:52:00,
2013-01-20 15:57:00,60.9,34.5,29.95,West,276,4.0,11.0,37,0.00,,---,0.00,VWS V14.01,2013-01-20 20:57:00,
2013-01-20 16:02:00,60.5,34.1,29.95,West,261,4.0,10.0,37,0.00,,---,0.00,VWS V14.01,2013-01-20 21:02:00,
2013-01-20 16:07:00,60.4,32.7,29.95,NW,323,6.0,11.0,35,0.00,,---,0.00,VWS V14.01,2013-01-20 21:07:00,
2013-01-20 16:13:00,60.1,31.7,29.95,WSW,254,6.0,12.0,34,0.00,,---,0.00,VWS V14.01,2013-01-20 21:13:00,
2013-01-20 16:18:00,59.7,32.0,29.96,West,281,2.0,12.0,35,0.00,,---,0.00,VWS V14.01,2013-01-20 21:18:00,
2013-01-20 16:23:00,59.6,31.2,29.96,West,273,6.0,11.0,34,0.00,,---,0.00,VWS V14.01,2013-01-20 21:23:00,
2013-01-20 16:28:00,59.1,29.3,29.96,West,281,2.0,12.0,32,0.00,,---,0.00,VWS V14.01,2013-01-20 21:28:00,
2013-01-20 16:33:00,59.0,29.2,29.96,WNW,294,4.0,7.0,32,0.00,,---,0.00,VWS V14.01,2013-01-20 21:33:00,
2013-01-20 16:38:00,58.5,29.5,29.96,West,271,4.0,11.0,33,0.00,,---,0.00,VWS V14.01,2013-01-20 21:38:00,
2013-01-20 16:43:00,58.2,29.3,29.96,WNW,286,5.0,11.0,33,0.00,,---,0.00,VWS V14.01,2013-01-20 21:43:00,
2013-01-20 16:48:00,57.9,29.0,29.97,WNW,284,4.0,11.0,33,0.00,,---,0.00,VWS V14.01,2013-01-20 21:48:00,
2013-01-20 16:53:00,57.5,28.6,29.97,West,279,3.0,10.0,33,0.00,,---,0.00,VWS V14.01,2013-01-20 21:53:00,
2013-01-20 16:58:00,57.2,28.4,29.97,WNW,290,7.0,10.0,33,0.00,,---,0.00,VWS V14.01,2013-01-20 21:58:00,
2013-01-20 17:03:00,56.9,28.8,29.97,WNW,296,5.0,12.0,34,0.00,,---,0.00,VWS V14.01,2013-01-20 22:03:00,
2013-01-20 17:08:00,56.4,27.7,29.97,NW,321,2.0,14.0,33,0.00,,---,0.00,VWS V14.01,2013-01-20 22:08:00,
2013-01-20 17:13:00,55.9,28.0,29.98,West,267,0.0,10.0,34,0.00,,---,0.00,VWS V14.01,2013-01-20 22:13:00,
2013-01-20 17:19:00,55.4,28.2,29.98,West,279,0.0,10.0,35,0.00,,---,0.00,VWS V14.01,2013-01-20 22:19:00,
2013-01-20 17:24:00,55.0,27.9,29.98,WNW,299,2.0,5.0,35,0.00,,---,0.00,VWS V14.01,2013-01-20 22:24:00,
2013-01-20 17:29:00,54.8,27.7,29.99,WNW,290,6.0,11.0,35,0.00,,---,0.00,VWS V14.01,2013-01-20 22:29:00,
2013-01-20 17:34:00,54.6,27.5,29.99,West,279,7.0,12.0,35,0.00,,---,0.00,VWS V14.01,2013-01-20 22:34:00,
2013-01-20 17:39:00,54.3,27.2,29.99,WNW,296,4.0,12.0,35,0.00,,---,0.00,VWS V14.01,2013-01-20 22:39:00,
2013-01-20 17:44:00,54.0,27.7,30.00,NW,311,3.0,10.0,36,0.00,,---,0.00,VWS V14.01,2013-01-20 22:44:00,
2013-01-20 17:49:00,53.5,27.9,30.00,WNW,286,2.0,10.0,37,0.00,,---,0.00,VWS V14.01,2013-01-20 22:49:00,
2013-01-20 17:54:00,53.0,28.1,30.00,WNW,288,0.0,6.0,38,0.00,,---,0.00,VWS V14.01,2013-01-20 22:54:00,
2013-01-20 17:59:00,52.6,27.7,30.01,NW,321,0.0,6.0,38,0.00,,---,0.00,VWS V14.01,2013-01-20 22:59:00,
2013-01-20 18:04:00,52.0,27.8,30.01,NW,305,0.0,5.0,39,0.00,,---,0.00,VWS V14.01,2013-01-20 23:04:00,
2013-01-20 18:09:00,51.5,28.0,30.01,WNW,288,0.0,5.0,40,0.00,,---,0.00,VWS V14.01,2013-01-20 23:09:00,
2013-01-20 18:14:00,51.3,27.8,30.01,WNW,283,0.0,11.0,40,0.00,,---,0.00,VWS V14.01,2013-01-20 23:14:00,
2013-01-20 18:19:00,51.2,27.7,30.01,NW,317,3.0,11.0,40,0.00,,---,0.00,VWS V14.01,2013-01-20 23:19:00,
2013-01-20 18:25:00,50.8,28.0,30.01,WNW,296,0.0,5.0,41,0.00,,---,0.00,VWS V14.01,2013-01-20 23:25:00,
2013-01-20 18:30:00,50.5,27.7,30.02,WSW,245,2.0,2.0,41,0.00,,---,0.00,VWS V14.01,2013-01-20 23:30:00,
2013-01-20 18:35:00,50.3,27.5,30.02,WNW,302,2.0,5.0,41,0.00,,---,0.00,VWS V14.01,2013-01-20 23:35:00,
2013-01-20 18:40:00,50.0,27.8,30.02,WNW,302,2.0,3.0,42,0.00,,---,0.00,VWS V14.01,2013-01-20 23:40:00,
2013-01-20 18:45:00,49.4,27.9,30.03,WNW,302,1.0,3.0,43,0.00,,---,0.00,VWS V14.01,2013-01-20 23:45:00,
2013-01-20 18:50:00,49.0,27.5,30.03,WNW,302,0.0,0.0,43,0.00,,---,0.00,VWS V14.01,2013-01-20 23:50:00,
2013-01-20 18:55:00,48.9,28.0,30.03,WNW,302,1.0,4.0,44,0.00,,---,0.00,VWS V14.01,2013-01-20 23:55:00,
2013-01-20 19:00:00,48.7,28.3,30.03,WNW,292,0.0,1.0,45,0.00,,---,0.00,VWS V14.01,2013-01-21 00:00:00,
2013-01-20 19:05:00,48.2,28.4,30.03,West,275,4.0,4.0,46,0.00,,---,0.00,VWS V14.01,2013-01-21 00:05:00,
2013-01-20 19:10:00,48.2,28.4,30.03,WNW,289,2.0,3.0,46,0.00,,---,0.00,VWS V14.01,2013-01-21 00:10:00,
2013-01-20 19:15:00,48.0,28.2,30.03,WNW,289,1.0,3.0,46,0.00,,---,0.00,VWS V14.01,2013-01-21 00:15:00,
2013-01-20 19:20:00,47.7,28.5,30.03,West,281,1.0,3.0,47,0.00,,---,0.00,VWS V14.01,2013-01-21 00:20:00,
2013-01-20 19:25:00,47.4,28.2,30.03,WNW,291,1.0,4.0,47,0.00,,---,0.00,VWS V14.01,2013-01-21 00:25:00,
2013-01-20 19:31:00,47.2,28.5,30.03,WNW,288,0.0,3.0,48,0.00,,---,0.00,VWS V14.01,2013-01-21 00:31:00,
2013-01-20 19:36:00,46.9,28.8,30.03,WNW,289,4.0,5.0,49,0.00,,---,0.00,VWS V14.01,2013-01-21 00:36:00,
2013-01-20 19:41:00,47.0,28.9,30.03,WNW,291,2.0,5.0,49,0.00,,---,0.00,VWS V14.01,2013-01-21 00:41:00,
2013-01-20 19:46:00,47.2,29.0,30.03,NW,309,3.0,6.0,49,0.00,,---,0.00,VWS V14.01,2013-01-21 00:46:00,
2013-01-20 19:51:00,47.3,28.6,30.03,West,273,0.0,6.0,48,0.00,,---,0.00,VWS V14.01,2013-01-21 00:51:00,
2013-01-20 19:56:00,47.4,28.7,30.03,NW,323,2.0,6.0,48,0.00,,---,0.00,VWS V14.01,2013-01-21 00:56:00,
2013-01-20 20:01:00,47.1,28.9,30.03,NW,307,1.0,2.0,49,0.00,,---,0.00,VWS V14.01,2013-01-21 01:01:00,
2013-01-20 20:06:00,46.7,29.1,30.03,NW,306,0.0,2.0,50,0.00,,---,0.00,VWS V14.01,2013-01-21 01:06:00,
2013-01-20 20:11:00,46.6,29.0,30.03,NW,306,0.0,0.0,50,0.00,,---,0.00,VWS V14.01,2013-01-21 01:11:00,
2013-01-20 20:16:00,45.8,29.2,30.03,NW,306,0.0,0.0,52,0.00,,---,0.00,VWS V14.01,2013-01-21 01:16:00,
2013-01-20 20:21:00,44.9,29.7,30.03,NW,306,0.0,0.0,55,0.00,,---,0.00,VWS V14.01,2013-01-21 01:21:00,
2013-01-20 20:26:00,44.0,29.8,30.03,NW,306,0.0,1.0,57,0.00,,---,0.00,VWS V14.01,2013-01-21 01:26:00,
2013-01-20 20:31:00,43.7,29.5,30.03,NW,306,0.0,1.0,57,0.00,,---,0.00,VWS V14.01,2013-01-21 01:31:00,
2013-01-20 20:37:00,43.7,29.5,30.03,NW,306,3.0,3.0,57,0.00,,---,0.00,VWS V14.01,2013-01-21 01:37:00,
2013-01-20 20:42:00,44.2,29.5,30.03,NW,306,2.0,3.0,56,0.00,,---,0.00,VWS V14.01,2013-01-21 01:42:00,
2013-01-20 20:47:00,44.9,30.2,30.04,WNW,288,0.0,5.0,56,0.00,,---,0.00,VWS V14.01,2013-01-21 01:47:00,
2013-01-20 20:52:00,45.1,29.9,30.04,WNW,288,0.0,3.0,55,0.00,,---,0.00,VWS V14.01,2013-01-21 01:52:00,
2013-01-20 20:57:00,45.2,30.0,30.04,WNW,289,0.0,3.0,55,0.00,,---,0.00,VWS V14.01,2013-01-21 01:57:00,
2013-01-20 21:03:00,45.4,30.2,30.04,West,278,0.0,4.0,55,0.00,,---,0.00,VWS V14.01,2013-01-21 02:03:00,
2013-01-20 21:08:00,45.2,30.0,30.04,West,278,0.0,4.0,55,0.00,,---,0.00,VWS V14.01,2013-01-21 02:08:00,
2013-01-20 21:13:00,45.0,30.3,30.04,West,278,0.0,0.0,56,0.00,,---,0.00,VWS V14.01,2013-01-21 02:13:00,
2013-01-20 21:18:00,44.5,30.2,30.04,West,278,0.0,1.0,57,0.00,,---,0.00,VWS V14.01,2013-01-21 02:18:00,
2013-01-20 21:23:00,43.1,30.6,30.04,West,278,0.0,0.0,61,0.00,,---,0.00,VWS V14.01,2013-01-21 02:23:00,
2013-01-20 21:28:00,42.0,30.7,30.04,West,278,0.0,0.0,64,0.00,,---,0.00,VWS V14.01,2013-01-21 02:28:00,
2013-01-20 21:33:00,41.3,30.8,30.04,West,278,0.0,0.0,66,0.00,,---,0.00,VWS V14.01,2013-01-21 02:33:00,
2013-01-20 21:38:00,40.7,31.0,30.04,West,278,0.0,0.0,68,0.00,,---,0.00,VWS V14.01,2013-01-21 02:38:00,
2013-01-20 21:43:00,40.5,31.1,30.04,West,278,0.0,0.0,69,0.00,,---,0.00,VWS V14.01,2013-01-21 02:43:00,
2013-01-20 21:48:00,40.5,30.8,30.04,West,278,0.0,0.0,68,0.00,,---,0.00,VWS V14.01,2013-01-21 02:48:00,
2013-01-20 21:53:00,40.7,30.6,30.04,West,278,0.0,0.0,67,0.00,,---,0.00,VWS V14.01,2013-01-21 02:53:00,
2013-01-20 21:58:00,40.7,31.0,30.04,West,278,0.0,1.0,68,0.00,,---,0.00,VWS V14.01,2013-01-21 02:58:00,
2013-01-20 22:03:00,40.7,31.0,30.03,West,278,0.0,1.0,68,0.00,,---,0.00,VWS V14.01,2013-01-21 03:03:00,
2013-01-20 22:08:00,41.1,31.4,30.03,West,279,1.0,3.0,68,0.00,,---,0.00,VWS V14.01,2013-01-21 03:08:00,
2013-01-20 22:13:00,41.5,31.0,30.03,West,279,0.0,3.0,66,0.00,,---,0.00,VWS V14.01,2013-01-21 03:13:00,
2013-01-20 22:18:00,42.4,31.1,30.03,West,279,0.0,3.0,64,0.00,,---,0.00,VWS V14.01,2013-01-21 03:18:00,
2013-01-20 22:24:00,41.9,31.4,30.03,West,279,0.0,1.0,66,0.00,,---,0.00,VWS V14.01,2013-01-21 03:24:00,
2013-01-20 22:29:00,40.3,31.0,30.03,West,279,0.0,1.0,69,0.00,,---,0.00,VWS V14.01,2013-01-21 03:29:00,
2013-01-20 22:34:00,39.1,32.2,30.03,West,279,0.0,0.0,76,0.00,,---,0.00,VWS V14.01,2013-01-21 03:34:00,
2013-01-20 22:39:00,38.4,31.8,30.03,West,279,0.0,0.0,77,0.00,,---,0.00,VWS V14.01,2013-01-21 03:39:00,
2013-01-20 22:44:00,38.3,31.7,30.03,West,279,0.0,1.0,77,0.00,,---,0.00,VWS V14.01,2013-01-21 03:44:00,
2013-01-20 22:49:00,38.2,31.3,30.03,West,279,0.0,1.0,76,0.00,,---,0.00,VWS V14.01,2013-01-21 03:49:00,
2013-01-20 22:54:00,38.1,31.2,30.03,West,279,1.0,2.0,76,0.00,,---,0.00,VWS V14.01,2013-01-21 03:54:00,
2013-01-20 22:59:00,37.9,31.7,30.03,West,279,0.0,2.0,78,0.00,,---,0.00,VWS V14.01,2013-01-21 03:59:00,
2013-01-20 23:04:00,37.6,31.4,30.03,West,279,0.0,0.0,78,0.00,,---,0.00,VWS V14.01,2013-01-21 04:04:00,
2013-01-20 23:09:00,37.5,31.3,30.03,West,279,0.0,0.0,78,0.00,,---,0.00,VWS V14.01,2013-01-21 04:09:00,
2013-01-20 23:14:00,37.5,30.6,30.03,West,279,0.0,1.0,76,0.00,,---,0.00,VWS V14.01,2013-01-21 04:14:00,
2013-01-20 23:19:00,37.7,30.5,30.03,West,279,0.0,1.0,75,0.00,,---,0.00,VWS V14.01,2013-01-21 04:19:00,
2013-01-20 23:24:00,37.9,30.4,30.03,West,279,0.0,0.0,74,0.00,,---,0.00,VWS V14.01,2013-01-21 04:24:00,
2013-01-20 23:29:00,38.0,30.5,30.03,West,279,0.0,0.0,74,0.00,,---,0.00,VWS V14.01,2013-01-21 04:29:00,
2013-01-20 23:34:00,38.3,30.1,30.03,West,279,0.0,0.0,72,0.00,,---,0.00,VWS V14.01,2013-01-21 04:34:00,
2013-01-20 23:39:00,37.7,29.8,30.03,West,279,0.0,1.0,73,0.00,,---,0.00,VWS V14.01,2013-01-21 04:39:00,
2013-01-20 23:44:00,36.9,30.4,30.03,West,279,0.0,0.0,77,0.00,,---,0.00,VWS V14.01,2013-01-21 04:44:00,
2013-01-20 23:49:00,36.7,30.8,30.03,West,279,0.0,0.0,79,0.00,,---,0.00,VWS V14.01,2013-01-21 04:49:00,
2013-01-20 23:55:00,36.6,30.7,30.03,West,279,0.0,0.0,79,0.00,,---,0.00,VWS V14.01,2013-01-21 04:55:00,